Satellite: AO-51
Catalog number: 28375
Epoch time:      05040.73221905
Element set:    0179
Inclination:      098.2310 deg
RA of node:       108.2437 deg
Eccentricity:    0.0083241
Arg of perigee:   256.0149 deg
Mean anomaly:     103.1761 deg
Mean motion:   14.40433172 rev/day
Decay rate:        9.3e-07 rev/day^2
Epoch rev:           03226
Checksum:              263

/EX
SB KEPS @ AMSAT  $ORB05041.W
Orbital Elements  05041.WEATHER

HR AMSAT ORBITAL ELEMENTS FOR WEATHER SATELLITES
FROM WA5QGD FORT WORTH,TX February 10, 2005
SEND SUBSCRIBE/UNSUBSCRIBE TO majordomo@amsat.org ONLY
BID: ORB05041.W
TO ALL RADIO AMATEURS BT

Satellite: NOAA-10
Catalog number: 16969
Epoch time:      05038.77471938
Element set:    0594
Inclination:      098.7640 deg
RA of node:       044.2282 deg
Eccentricity:    0.0012942
Arg of perigee:   146.7735 deg
Mean anomaly:     213.4248 deg
Mean motion:   14.27239254 rev/day
Decay rate:       -4.5e-07 rev/day^2
Epoch rev:           95663
Checksum:              332

Satellite: NOAA-11
Catalog number: 19531
Epoch time:      05040.85122573
Element set:    0450
Inclination:      098.8528 deg
RA of node:       129.0157 deg
Eccentricity:    0.0010523
Arg of perigee:   312.2013 deg
Mean anomaly:     047.8255 deg
Mean motion:   14.14751781 rev/day
Decay rate:       3.18e-06 rev/day^2
Epoch rev:           84492
Checksum:              279

Satellite: NOAA-12
Catalog number: 21263
Epoch time:      05040.84940671
Element set:    0944
Inclination:      098.6921 deg
RA of node:       032.2749 deg
Eccentricity:    0.0013764
Arg of perigee:   081.1398 deg
Mean anomaly:     279.1324 deg
Mean motion:   14.25448227 rev/day
Decay rate:       1.63e-06 rev/day^2
Epoch rev:           71410
Checksum:              295

Satellite: MET-3/5
Catalog number: 21655
Epoch time:      05040.77605718
Element set:    0739
Inclination:      082.5520 deg
RA of node:       248.6547 deg
Eccentricity:    0.0013031
Arg of perigee:   188.8621 deg
Mean anomaly:     171.2282 deg
Mean motion:   13.16997837 rev/day
Decay rate:        5.1e-07 rev/day^2
Epoch rev:           64854
Checksum:              317

Satellite: MET-2/21
Catalog number: 22782
Epoch time:      05040.92072402
Element set:    0126
Inclination:      082.5504 deg
RA of node:       001.9349 deg
Eccentricity:    0.0023519
Arg of perigee:   119.0485 deg
Mean anomaly:     241.3035 deg
Mean motion:   13.83580717 rev/day
Decay rate:       -1.9e-07 rev/day^2
Epoch rev:           57797
Checksum:              286

Satellite: OKEAN-4
Catalog number: 23317
Epoch time:      05040.95434608
Element set:    0548
Inclination:      082.5400 deg
RA of node:       016.0042 deg
Eccentricity:    0.0021943
Arg of perigee:   191.6139 deg
Mean anomaly:     168.4573 deg
Mean motion:   14.82059735 rev/day
Decay rate:       8.34e-06 rev/day^2
Epoch rev:           55706
Checksum:              292

Satellite: NOAA-14
Catalog number: 23455
Epoch time:      05040.87982995
Element set:    0470
Inclination:      099.1100 deg
RA of node:       087.0242 deg
Eccentricity:    0.0009146
Arg of perigee:   004.3259 deg
Mean anomaly:     355.7972 deg
Mean motion:   14.13537515 rev/day
Decay rate:       4.34e-06 rev/day^2
Epoch rev:           52151
Checksum:              295

Satellite: SICH-1
Catalog number: 23657
Epoch time:      05040.88901233
Element set:    0351
Inclination:      082.5313 deg
RA of node:       156.9065 deg
Eccentricity:    0.0024339
Arg of perigee:   177.5976 deg
Mean anomaly:     182.5401 deg
Mean motion:   14.81082932 rev/day
Decay rate:      1.173e-05 rev/day^2
Epoch rev:           50911
Checksum:              289

Satellite: NOAA-15
Catalog number: 25338
Epoch time:      05040.72502097
Element set:    0916
Inclination:      098.5171 deg
RA of node:       052.9216 deg
Eccentricity:    0.0010935
Arg of perigee:   016.3984 deg
Mean anomaly:     343.7548 deg
Mean motion:   14.24487447 rev/day
Decay rate:        4.8e-07 rev/day^2
Epoch rev:           35060
Checksum:              305

Satellite: RESURS
Catalog number: 25394
Epoch time:      05040.96778217
Element set:    0037
Inclination:      098.5560 deg
RA of node:       113.7231 deg
Eccentricity:    0.0001980
Arg of perigee:   139.6458 deg
Mean anomaly:     220.4869 deg
Mean motion:   14.24049861 rev/day
Decay rate:       -1.9e-07 rev/day^2
Epoch rev:           34234
Checksum:              301

Satellite: FENGYUN1
Catalog number: 25730
Epoch time:      05040.56661565
Element set:    0346
Inclination:      098.6046 deg
RA of node:       047.4571 deg
Eccentricity:    0.0015306
Arg of perigee:   103.9103 deg
Mean anomaly:     256.3794 deg
Mean motion:   14.11790820 rev/day
Decay rate:       4.51e-06 rev/day^2
Epoch rev:           29650
Checksum:              283

Satellite: OKEAN-0
Catalog number: 25860
Epoch time:      05040.95359472
Element set:    0355
Inclination:      097.7722 deg
RA of node:       072.3552 deg
Eccentricity:    0.0000743
Arg of perigee:   140.3081 deg
Mean anomaly:     219.8170 deg
Mean motion:   14.73201244 rev/day
Decay rate:      -1.23e-06 rev/day^2
Epoch rev:           29927
Checksum:              278

Satellite: NOAA-16
Catalog number: 26536
Epoch time:      05040.68990386
Element set:    0222
Inclination:      098.9979 deg
RA of node:       358.5107 deg
Eccentricity:    0.0011199
Arg of perigee:   069.8105 deg
Mean anomaly:     290.4215 deg
Mean motion:   14.12206116 rev/day
Decay rate:       -2.8e-07 rev/day^2
Epoch rev:           22606
Checksum:              308

